{"data":{"norad_id":43808,"intl_designator":"2018-099BC","name":"POLAR SCOUT YUKON","alt_names":[],"object_type":"PAYLOAD","status":"ACTIVE","operator":null,"country":"US","launch_date":"2018-12-03","launch_site_code":"AFWTR","launch_vehicle":null,"mission":null,"orbit_class":"UNKNOWN","rcs_meters":null,"size_class":null,"mass_kg":null,"dimensions":null,"purposes":[],"wikipedia_slug":null,"has_3d_model":false,"image_url":null,"decayed_at":null,"tle_current":{"epoch":"2026-09-20T01:50:40.570080Z","epoch_age_seconds":95025,"freshness":"FRESH","line1":"1 43808U 18099BC  26263.07685845  .00017807  00000+0  42352-3 0  9993","line2":"2 43808  97.4607 337.7621 0003671 358.7662   1.3575 15.41698091428112","mean_motion":15.41698091,"eccentricity":0.0003671,"inclination_deg":97.4607,"raan_deg":337.7621,"arg_perigee_deg":358.7662,"mean_anomaly_deg":1.3575,"bstar":0.00042352,"rev_number":42811,"period_min":93.403501529016,"perigee_km":438.59404910506,"apogee_km":443.60073099423,"semimajor_km":6819.2343900496,"source":"CELESTRAK","updated_at":"2026-09-20T09:00:14.409523Z"}}}